Время (UTC), дата Ветер
(°,м/с) 
Видим.   Явления Облачность Т
(°С)
Тd
(°С)
f(%) Тe
(°С)
Pmin
(гПа)
dP
(гПа)
Po
(мм)
O2
(г/м3)
Тmin Tmax R s Состояние
почвы
00 01.10.12 тихо ()   2000 м  дымка{туман}  8/5 2000 м средняя, верхняя 
[Ac trans|Ci fib]
-1.6 -1.6 100 -2  1022.9  -0.5  741  301  -1.6         
06 01.10.12 260 (З) >10 км  {ливн. осадки}  9/3 2000 м средняя, верхняя 
[Ac trans|Ci fib]
+13.8 +2.5 46 +14  1019.7  -1.4  740  283           
09 01.10.12 230 (ЮЗ) >10 км    9/0 верхняя 
[Ci fib]
+15.9 +3.6 44 +17  1018.4  -1  739  281           
12 01.10.12 230 (ЮЗ) >10 км    9/3 600 м кучево-дожд., средняя, верхняя 
[Cb cap|Ac trans|Ci fib]
+11.2 +1.7 52 +11  1018.9  -0.1  739  286    +16.2       
15 01.10.12 220 (ЮЗ) 4000 м    3/0 верхняя 
[Ci fib]
+8.9 +2.3 63 +10  1019.4  0.3  740  288           
18 01.10.12 220 (ЮЗ) 4000 м    8/0 верхняя 
[Ci fib]
+8.3 +2.1 65 +8  1019.8  0.2  740  289           
21 01.10.12 220 (ЮЗ) 4000 м    8/0 верхняя 
[Ci fib]
+6.6 +2.5 75 +8  1019.9  -0.1  740  291           
00 02.10.12 тихо ()   >10 км  слаб. ливневой дождь  9/8 600 м кучево-дожд., средняя 
[Cb cap|Ac trans]
+4.7 +2.2 84 +5  1021.2  1.1  740  293  +3.5    0.0     
03 02.10.12 230 (ЮЗ) >10 км  слаб. ливневой дождь  10/8 600 м кучево-дожд., средняя 
[Cb cap|Ac As]
+8 +4.3 77 +9  1021.4  0.5  741  289           
06 02.10.12 270 (З) >10 км  {ливн. осадки}  10/6 600 м кучево-дожд., средняя 
[Cb cap|Ac As]
+11 +4.8 66 +12  1020.5  -0.4  741  286           
09 02.10.12 350 (С) >10 км    10/5 600 м кучево-дожд., средняя 
[Cb cap|Ac As]
+9.7 +6.1 78 +11  1021  0.3  741  287           
12 02.10.12 тихо ()   10 км  {ливн. осадки}  10/10 600 м кучево-дожд. 
[Cb cap]
+9 +6.7 86 +9  1021.1  741  288    +11.9  0.5     
15 02.10.12 тихо ()   н/о  слаб. ливневой дождь  10/10 600 м кучево-дожд. 
[Cb cap]
+8.3 +7.4 94 +8  1021.2  741  288           
18 02.10.12 тихо ()   н/о  слаб. ливневой дождь  10/10 600 м кучево-дожд. 
[Cb cap]
+8.6 +7.7 94 +9  1020.5  -0.5  740  288           
21 02.10.12 тихо ()   н/о  слаб. ливневой дождь  10/10 600 м кучево-дожд. 
[Cb cap]
+8.2 +7.4 95 +8  1019.9  -0.8  740  288           
00 03.10.12 120 (ЮВ) 2000 м  ливневой дождь  10/10 600 м кучево-дожд. 
[Cb cap]
+7.6 +7 96 +9  1020  0.1  740  289  +7.4    0.5     
06 03.10.12 250 (З) >10 км  {ливн. осадки}  10/10 600 м кучево-дожд. 
[Cb cap]
+13.5 +8.2 70 +15  1018.9  -0.4  740  283           
09 03.10.12 050 (СВ) >10 км  в посл. час ливневой дождь  9/8 600 м кучево-дожд., средняя 
[Cb cap|Ac trans]
+12.1 +9.9 86 +14  1018.9  -0.2  739  283           
12 03.10.12 060 (СВ) >10 км  {ливн. осадки}  10/10 600 м кучево-дожд. 
[Cb cap]
+10.6 +9.4 92 +13  1019.1  0.1  740  285    +13.9  0.5     
15 03.10.12 тихо ()   4000 м    10/10 600 м кучево-дожд. 
[Cb cap]
+9.4 +8.1 92 +9  1019.3  0.1  740  287           
18 03.10.12 тихо ()   0500 м  туман  ?/?  
+7.8 +7.4 97 +8  1018.6  -1  739  288           
21 03.10.12 тихо ()   0500 м  туман  ?/?  
+7.8 +7.6 99 +8  1017.4  -1.1  738  288           
00 04.10.12 тихо ()   2000 м  дымка{туман}  10/10 300 м кучево-дожд. 
[Cb cap]
+7.9 +7.4 97 +8  1017  -0.4  738  288  +7.6         
03 04.10.12 080 (В) >10 км    10/10 600 м кучево-дожд. 
[Cb cap]
+8.5 +7.4 93 +10  1016.4  -0.4  737  287  +7.5         
06 04.10.12 060 (СВ) >10 км    9/4 2000 м средняя, верхняя 
[Ac trans|Ci fib]
+12.5 +8.2 75 +14  1015.1  -0.9  737  282           
09 04.10.12 100 (В) >10 км    9/3 2000 м средняя, верхняя 
[Ac trans|Ci fib]
+15 +8.8 66 +16  1013.8  -0.9  736  280           
12 04.10.12 200 (Ю) 10 км    9/0 верхняя 
[Ci fib]
+11 +8.5 85 +12  1014.3  736  284    +15.6       
15 04.10.12 220 (ЮЗ) 4000 м    8/0 верхняя 
[Ci fib]
+8.1 +7.3 95 +9  1014.2  -0.3  736  287           
18 04.10.12 260 (З) 4000 м    4/0 верхняя 
[Ci fib]
+6.1 +5.6 97 +7  1013.6  -1  735  289           
21 04.10.12 тихо ()   4000 м    8/3 2000 м средняя, верхняя 
[Ac trans|Ci fib]
+6.7 +6.5 99 +7  1013.7  0.2  735  288           
00 05.10.12 240 (ЮЗ) >10 км  слаб. ливневой дождь  10/10 600 м кучево-дожд. 
[Cb cap]
+8.2 +7.6 96 +9  1015  1.3  736  287  +5    0.0     
03 05.10.12 тихо ()   >10 км  {ливн. осадки}  9/6 600 м кучево-дожд., средняя 
[Cb cap|Ac trans]
+11.4 +8.5 82 +11  1014.5  736  283           
06 05.10.12 260 (З) >10 км  {ливн. осадки}  9/8 600 м кучево-дожд., верхняя 
[Cb cap|Ci fib]
+12.6 +8.4 76 +14  1014.4  736  282           
09 05.10.12 190 (Ю) >10 км    8/8 600 м кучево-дожд. 
[Cb cap]
+13.6 +8.2 70 +15  1013.7  -0.5  736  281           
12 05.10.12 220 (ЮЗ) >10 км  {ливн. осадки}  9/9 600 м 
+9.8 +6.8 82 +11  1014.7  0.5  736  285    +14.1  0.3     
15 05.10.12 230 (ЮЗ) 4000 м    9/6 600 м кучево-дожд., средняя 
[Cb cap|Ac trans]
+9.3 +7.4 88 +10  1015.5  0.7  737  286           
18 05.10.12 210 (ЮЗ) 4000 м  слаб. ливневой дождь  10/10 600 м кучево-дожд. 
[Cb cap]
+8.3 +7.4 94 +9  1016.1  0.4  737  287           
21 05.10.12 280 (З) 4000 м  слаб. ливневой дождь  10/10 600 м кучево-дожд. 
[Cb cap]
+7.5 +6.7 95 +8  1017.1  738  288           
00 06.10.12 260 (З) >10 км  {ливн. осадки}  10/10 600 м кучево-дожд. 
[Cb cap]
+5.6 +4.4 92 +6  1018.3  0.8  738  291  +5.5       
03 06.10.12 240 (ЮЗ) >10 км    10/4 600 м кучево-дожд., средняя 
[Cb cap|Ac As]
+5.6 +3.7 88 +6  1019.2  0.9  739  291  +5         
06 06.10.12 240 (ЮЗ) >10 км    5/3 2000 м средняя, верхняя 
[Ac cast|Cc]
+9.6 -1.2 47 +10  1019  0.3  739  288           
09 06.10.12 140 (ЮВ) >10 км    6/4 600 м средняя 
[Cu med, cong|Ac cuf]
+10.8 +1.3 52 +11  1018.4  -0.4  739  286           
12 06.10.12 210 (ЮЗ) >10 км    8/4 600 м кучево-дожд., средняя, верхняя 
[Cb cap|Ac lent|Ci fib]
+6.4 +1.4 70 +7  1019.2  0.2  739  291    +11.2       
15 06.10.12 260 (З) 4000 м  в посл. час ливневой дождь  9/8 600 м кучево-дожд., верхняя 
[Cb cap|Ci fib]
+4.1 +1.8 85 +4  1021.6  2.1  741  294           
18 06.10.12 250 (З) 4000 м  {ливн. осадки}  9/8 600 м кучево-дожд., верхняя 
[Cb cap|Ci fib]
+3.4 +0.5 81 +2  1022.6  0.8  741  295           
21 06.10.12 250 (З) 4000 м  слаб. ливневой дождь  10/10 600 м кучево-дожд. 
[Cb cap]
+3.3 +0.9 84 +2  1022.7  0.1  741  295           
00 07.10.12 250 (З) >10 км  слаб. ливневой дождь  10/10 600 м кучево-дожд. 
[Cb cap]
+2.9 +0.8 86 +2  1023.4  0.7  742  296  +2.9       
06 07.10.12 280 (З) >10 км  {ливн. осадки}  9/8 600 м кучево-дожд., средняя 
[Cb cap|Ac trans]
+6.4 +0.8 67 +6  1023.8  743  292           
09 07.10.12 280 (З) >10 км  {ливн. осадки}  9/9 600 м кучево-дожд., средняя 
[Cb cap|Ac trans]
+6.6 +0.5 65 +6  1024  0.2  743  292           
12 07.10.12 240 (ЮЗ) >10 км  в посл. час ливневой дождь  9/6 600 м кучево-дожд., средняя, верхняя 
[Cb cap|Ac trans|Ci fib]
+3.6 +1 83 +4  1025.2  0.7  743  295    +6.9  0.0     
15 07.10.12 230 (ЮЗ) 4000 м    9/6 600 м кучево-дожд., средняя 
[Cb cap|Ac trans]
+4 +0.3 77 +3  1026  0.9  744  295           
18 07.10.12 230 (ЮЗ) 4000 м    9/5 600 м кучево-дожд., средняя 
[Cb cap|Ac trans]
+4.1 +0.4 77 +4  1025.2  -0.7  743  295           
21 07.10.12 230 (ЮЗ) 4000 м    9/6 600 м кучево-дожд., средняя 
[Cb cap|Ac trans]
+4 +0 75 +3  1024.6  -0.6  743  295           
00 08.10.12 230 (ЮЗ) >10 км    10/10 600 м кучево-дожд. 
[Cb cap]
+3.9 -0.1 75 +3  1024.1  -0.5  743  295  +3.3         
03 08.10.12 210 (ЮЗ) >10 км    9/5 600 м кучево-дожд., средняя, верхняя 
[Cb cap|Ac trans|Ci fib]
+6 +0.6 68 +4  1023.8  743  293  +3.5         
06 08.10.12 170 (Ю) >10 км    8/6 600 м кучево-дожд., верхняя 
[Cb cap|Ci fib]
+7.4 +1.3 65 +8  1022.6  -1.1  742  291           
09 08.10.12 210 (ЮЗ) >10 км    9/3 600 м кучево-дожд., средняя 
[Cb cap|Ac trans]
+9.3 -1.2 48 +9  1020.4  -1.8  740  289           
12 08.10.12 230 (ЮЗ) 4000 м  слаб. ливневой дождь  10/10 600 м кучево-дожд. 
[Cb cap]
+7.4 -0.9 56 +7  1020.6  -0.1  740  290    +9.7  0.0     
15 08.10.12 230 (ЮЗ) 4000 м  в посл. час ливневой дождь  10/10 600 м кучево-дожд. 
[Cb cap]
+6.2 +1.7 73 +6  1019.7  -1  740  291           
18 08.10.12 220 (ЮЗ) 4000 м  {ливн. осадки}  10/10 600 м кучево-дожд. 
[Cb cap]
+5.7 +3.3 85 +5  1018.4  -1.3  739  291           
21 08.10.12 250 (З) 4000 м  слаб. ливневой дождь  10/10 600 м кучево-дожд. 
[Cb cap]
+5 +2.8 86 +5  1017.3  -1.1  738  291           
00 09.10.12 240 (ЮЗ) >10 км  {ливн. осадки}  10/10 600 м кучево-дожд. 
[Cb cap]
+6.2 +2.8 79 +6  1015.8  -1.4  737  290  +4.8    0.0     
03 09.10.12 220 (ЮЗ) >10 км  слаб. ливневой дождь  10/10 600 м кучево-дожд. 
[Cb cap]
+6.6 +3.8 82 +5  1013  -2.7  735  288           
06 09.10.12 230 (ЮЗ) 4000 м  ливневой дождь  10/10 600 м кучево-дожд. 
[Cb cap]
+7.7 +5 83 +7  1009.8  -2.9  732  286           
12 09.10.12 250 (З) 3{10}  4000 м  слаб. ливневой дождь  10/10 600 м кучево-дожд. 
[Cb cap]
+7.8 +6.5 91 +7  1006.2  -0.3  730  285    +8.5     
18 09.10.12 260 (З) 3{11}  4000 м  слаб. ливневой дождь  10/10 600 м кучево-дожд. 
[Cb cap]
+7.1 +5.5 90 +6  1006.7  0.4  730  286           
00 10.10.12 260 (З) >10 км  слаб. ливневой дождь  10/10 600 м кучево-дожд. 
[Cb cap]
+4.7 +3 89 +6  1011.3  2.6  733  290  +4.6       
06 10.10.12 260 (З) >10 км  слаб. ливневой дождь  10/10 600 м кучево-дожд. 
[Cb cap]
+5.1 +2.1 81 +4  1012.2  -0.4  734  290           
12 10.10.12 270 (З) 2{10}  4000 м  слаб. ливневой снег  10/10 600 м кучево-дожд. 
[Cb cap]
-1.9 -4.7 81 -3  1018.8  4.1  738  300    +5.7     
15 10.10.12 270 (З) н/о  слаб. ливневой снег  6/6 600 м кучево-дожд. 
[Cb cap]
-3.1 -6.2 79 -5  1021.3  2.2  740  302           
18 10.10.12 270 (З) 2{10}  4000 м  слаб. ливневой снег  8/8 600 м кучево-дожд. 
[Cb cap]
-3.1 -5.9 81 -4  1021.6  0.3  740  302           
21 10.10.12 270 (З) 4000 м  слаб. ливневой снег  10/10 600 м кучево-дожд. 
[Cb cap]
-3.1 -5.5 84 -5  1022.3  0.7  740  302           
00 11.10.12 270 (З) 0500 м    10/10 600 м кучево-дожд. 
[Cb cap]
-3.3 -6.1 81 -5  1023.3  0.9  741  303  +3.3    868  равномерный
мокрый или
старый снег
100% 
06 11.10.12 270 (З) 4{11}  >10 км  слаб. ливневой снег  10/10 600 м кучево-дожд. 
[Cb cap]
-1.5 -5.9 72 -4  1024.1  0.8  742  301           
12 11.10.12 270 (З) 4000 м  ливневой снег  10/10 600 м кучево-дожд. 
[Cb cap]
-2.1 -4.6 83 -3  1027.3  1.7  744  303    -1  0.6     
15 11.10.12 220 (ЮЗ) 4000 м  слаб. ливневой снег  10/10 600 м кучево-дожд. 
[Cb cap]
-2.4 -4 89 -2  1028.1  0.7  745  303           
18 11.10.12 270 (З) н/о  ливневой снег  10/10 600 м кучево-дожд. 
[Cb cap]
-2.6 -3.9 91 -4  1028  -0.1  745  303           
21 11.10.12 270 (З) н/о  ливневой снег  10/10 600 м кучево-дожд. 
[Cb cap]
-2.9 -3.6 95 -2  1028.1  0.1  745  304           
00 12.10.12 280 (З) 4000 м  ливневой снег  10/10 600 м кучево-дожд. 
[Cb cap]
-3.3 -3.7 97 -4  1028.8  0.5  745  304  -3.3    10  равномерный
сухой снег
100% 
06 12.10.12 020 (С) >10 км  слаб. крупа{ливн. осадки}  10/10 600 м кучево-дожд. 
[Cb cap]
-1.8 -4.6 81 -1  1029.9  0.3  746  303           
09 12.10.12 020 (С) 2000 м  ливневой снег  10/10 600 м кучево-дожд. 
[Cb cap]
-2.1 -4.2 85 -2  1031.1  747  304           
12 12.10.12 030 (СВ) 4000 м  слаб. ливневой снег  10/10 600 м кучево-дожд. 
[Cb cap]
-2.9 -3.3 97 -2  1033  1.8  748  305    -0.8     
15 12.10.12 тихо ()   4000 м  слаб. ливневой снег  10/10 600 м кучево-дожд. 
[Cb cap]
-3.3 -3.7 97 -3  1033.7  0.6  749  306           
18 12.10.12 тихо ()   4000 м  {ливн. осадки}  10/10 600 м кучево-дожд. 
[Cb cap]
-4 -4.2 98 -4  1034.5  0.7  749  307           
21 12.10.12 тихо ()   4000 м    10/10 600 м кучево-дожд. 
[Cb cap]
-3.6 -4.1 96 -4  1033.5  750  307           
00 13.10.12 тихо ()   >10 км  {ливн. осадки}  10/10 600 м кучево-дожд. 
[Cb cap]
-4 -4.5 96 -4  1036.9  1.3  751  308  -4.5    0.2  10  равномерный
сухой снег
100% 
03 13.10.12 020 (С) >10 км  слаб. ливневой снег  10/10 300 м кучево-дожд. 
[Cb cap]
-3.3 -4 95 -3  1038.1  1.2  752  307           
06 13.10.12 040 (СВ) >10 км  слаб. ливневой снег  10/10 600 м кучево-дожд. 
[Cb cap]
-1.7 -3.8 86 -1  1038  0.2  752  305           
09 13.10.12 тихо ()   >10 км  {ливн. осадки}  9/8 600 м кучево-дожд., верхняя 
[Cb cap|Ci fib]
-0.5 -5 71 -1  1037.8  -0.1  752  304           
12 13.10.12 250 (З) 4000 м  {ливн. осадки}  10/10 600 м кучево-дожд. 
[Cb cap]
-1.3 -2.8 90 -1  1038.4  0.5  752  305    +0.3  0.0     
15 13.10.12 260 (З) 4000 м    10/10 600 м кучево-дожд. 
[Cb cap]
-1.8 -2.7 94 -1  1038.4  752  305           
18 13.10.12 240 (ЮЗ) 4000 м    3/3 2000 м средняя 
[Ac trans]
-4.8 -5.1 98 -4  1038.9  0.1  752  309           
21 13.10.12 тихо ()   4000 м    9/8 600 м кучево-дожд., средняя 
[Cb cap|Ac trans]
-3.3 -3.3 100 -3  1038.4  -0.4  752  307           
00 14.10.12 тихо ()   >10 км    10/10 600 м кучево-дожд. 
[Cb cap]
-3.1 -3.1 100 -3  1038.7  0.3  752  307  -5      равномерный
сухой снег
100% 
06 14.10.12 010 (С) 10 км    9/9 600 м кучево-дожд. 
[Cb cap]
-0.3 -3 82 1037.9  -0.8  752  304           
09 14.10.12 тихо ()   10 км    10/5 600 м кучево-дожд., средняя, верхняя 
[Cb cap|Ac trans|Cs]
+0.4 -3.2 77 1036.6  -1.1  751  303           
12 14.10.12 тихо ()   н/о  дымка  9/6 600 м кучево-дожд., средняя 
[Cb cap|Ac trans]
-0.7 -2.2 90 -1  1035.9  -0.8  751  303    +1       
15 14.10.12 230 (ЮЗ) н/о  дымка  8/8 2000 м средняя 
[Ac trans]
-3.7 -4.8 92 -3  1034.8  -1.4  750  307           
18 14.10.12 тихо ()   4000 м    9/3 600 м кучево-дожд., средняя, верхняя 
[Cb cap|Ac trans|Ci fib]
-4.2 -5.4 91 -4  1033.2  -1.7  748  307           
00 15.10.12 240 (ЮЗ) >10 км    9/8 600 м кучево-дожд., средняя 
[Cb cap|Ac trans]
-1.8 -5.2 78 -5  1031.1  -0.5  747  304  -4.8      равномерный
сухой снег
100% 
06 15.10.12 240 (ЮЗ) >10 км    10/10 600 м кучево-дожд. 
[Cb cap]
+0.8 -3.5 73 -2  1030  -1.3  746  300           
09 15.10.12 230 (ЮЗ) >10 км  {ливн. осадки}  9/8 600 м кучево-дожд., средняя 
[Cb cap|Ac trans]
+1.8 -3.6 67 1028.8  -1  746  299           
12 15.10.12 230 (ЮЗ) 4000 м  {ливн. осадки}  10/10 600 м кучево-дожд. 
[Cb cap]
+1.2 -3.7 70 -1  1027.9  -0.8  745  299    +1.9  0.0     
18 15.10.12 230 (ЮЗ) 4000 м  {ливн. осадки}  10/10 600 м кучево-дожд. 
[Cb cap]
+1.9 -3.8 66 1025.3  -1.6  743  298           
21 15.10.12 230 (ЮЗ) 4000 м  слаб. ливневой снег  10/10 600 м кучево-дожд. 
[Cb cap]
+0.9 -3.7 71 -1  1024.8  -0.6  743  299           
00 16.10.12 280 (З) >10 км  слаб. ливневой снег  10/10 600 м кучево-дожд. 
[Cb cap]
+0.6 -3.7 73 1025.4  0.5  743  299  +0.6    0.0  мокрый или
старый снег
50-90% 
06 16.10.12 260 (З) >10 км  слаб. ливневой снег  10/10 600 м кучево-дожд. 
[Cb cap]
+2 -1.4 78 +1  1024.9  -0.4  743  297           
09 16.10.12 240 (ЮЗ) >10 км  слаб. ливневой снег  10/10 600 м кучево-дожд. 
[Cb cap]
+2.1 -0.7 82 +3  1024.3  -0.5  743  297           
12 16.10.12 тихо ()   4000 м  {ливн. осадки}  9/8 600 м кучево-дожд., средняя 
[Cb cap|Ac trans]
+1.1 -0.3 90 +1  1024.5  0.1  743  298    +2.3  0.0     
15 16.10.12 тихо ()   4000 м  {ливн. осадки}  10/10 600 м кучево-дожд. 
[Cb cap]
+0.8 -0.3 92 +1  1024.9  0.2  743  298           
18 16.10.12 тихо ()   4000 м  слаб. ливневой снег  10/10 600 м кучево-дожд. 
[Cb cap]
+0.1 -1.4 90 1024.9  743  299           
21 16.10.12 тихо ()   4000 м  {ливн. осадки}  10/10 600 м кучево-дожд. 
[Cb cap]
-0.4 -1.9 90 -0  1024.7  -0.3  743  300           
00 17.10.12 тихо ()   >10 км  {ливн. осадки}  10/10 600 м кучево-дожд. 
[Cb cap]
-1.2 -2.1 94 -1  1024.7  -0.1  742  301  -1.5    0.0  мокрый или
старый снег
10-40% 
03 17.10.12 060 (СВ) >10 км  слаб. ливневой снег  10/10 600 м кучево-дожд. 
[Cb cap]
-0.3 -2.1 88 1024.2  -0.4  742  300           
06 17.10.12 110 (В) >10 км  слаб. ливневой снег  10/10 600 м кучево-дожд. 
[Cb cap]
+0.1 -3.1 79 +1  1023.4  -0.7  742  299           
09 17.10.12 020 (С) >10 км  в посл. час ливневой снег  10/10 600 м кучево-дожд. 
[Cb cap]
+1.1 -4.1 68 +2  1022.7  -0.5  741  298           
12 17.10.12 тихо ()   4000 м  {ливн. осадки}  10/10 600 м кучево-дожд. 
[Cb cap]
-1.8 -6 73 -2  1023.5  0.4  742  301    +1.2  0.0     
15 17.10.12 030 (СВ) 4000 м    9/8 600 м кучево-дожд., средняя 
[Cb cap|Ac trans]
-3.9 -5.1 91 -3  1024.5  0.6  742  304           
18 17.10.12 060 (СВ) 4000 м    9/9 2000 м средняя 
[Ac trans]
-4 -6.2 85 -4  1024.1  -0.4  742  304           
21 17.10.12 050 (СВ) 4000 м    9/4 600 м кучево-дожд., средняя 
[Cb cap|Ac trans]
-4.7 -7.1 83 -6  1024  -0.1  742  305           
00 18.10.12 020 (С) 4000 м    10/10 600 м кучево-дожд. 
[Cb cap]
-5.6 -8.2 82 -5  1024.5  0.4  742  306  -5.9         
03 18.10.12 080 (В) >10 км    3/3 600 м кучево-дожд. 
[Cb cap]
-4.6 -8.1 76 -6  1024.9  0.5  742  305  -6         
06 18.10.12 050 (СВ) >10 км    3/3 600 м 
[Cu med, cong]
-2.2 -8.9 60 -3  1024.8  0.2  742  302           
09 18.10.12 030 (СВ) >10 км    3/3 600 м 
[Cu med, cong]
-1.6 -9 57 -3  1024.8  0.1  743  302           
12 18.10.12 230 (ЮЗ) 4000 м    ясно 
-6 -9.5 76 -6  1026.6  743  307    -0.7       
15 18.10.12 250 (З) 4000 м    3/3 600 м кучево-дожд. 
[Cb cap]
-7.1 -9.6 82 -7  1027.2  0.5  744  309           
18 18.10.12 250 (З) 4000 м    ясно 
-9.5 -10.2 95 -9  1027.8  0.3  744  312           
21 18.10.12 250 (З) 4000 м    ясно 
-10.7 -12 90 -11  1028.4  0.3  744  313           
00 19.10.12 260 (З) 4000 м    9/3 600 м кучево-дожд., средняя, верхняя 
[Cb cap|Ac trans|Ci fib]
-11.8 -12.4 95 -12  1029.1  0.6  745  315  -11.8         
03 19.10.12 070 (В) >10 км    8/4 2000 м средняя, верхняя 
[Ac trans|Ci fib]
-8.3 -9.7 90 -8  1028.6  0.1  745  310  -12         
06 19.10.12 090 (В) >10 км    9/8 600 м кучево-дожд., средняя, верхняя 
[Cb cap|Ac trans|Ci fib]
-4.9 -10.7 64 -6  1027.7  -0.5  744  306           
09 19.10.12 060 (СВ) >10 км    9/4 600 м кучево-дожд., средняя 
[Cb cap|Ac trans]
-4.2 -10.5 61 -5  1027  -0.6  744  305           
12 19.10.12 110 (В) 4000 м    9/8 600 м кучево-дожд., средняя 
[Cb cap|Ac trans]
-5.1 -11 63 -6  1026.7  -0.4  743  306    -3.7       
15 19.10.12 090 (В) 4000 м  слаб. ливневой снег  10/10 600 м кучево-дожд. 
[Cb cap]
-5.3 -9.9 70 -5  1026.2  -0.5  743  306           
18 19.10.12 060 (СВ) 4000 м  слаб. ливневой снег  10/10 600 м кучево-дожд. 
[Cb cap]
-6.3 -7.5 91 -6  1025.1  -1.2  742  307           
21 19.10.12 тихо ()   4000 м  слаб. ливневой снег  10/10 600 м кучево-дожд. 
[Cb cap]
-6.8 -7.3 96 -7  1024.2  -0.9  742  307           
00 20.10.12 030 (СВ) 4000 м  слаб. ливневой снег  10/10 600 м кучево-дожд. 
[Cb cap]
-7.1 -7.6 96 -7  1023.1  -1.2  741  307  -7.2    0.8  равномерный
сухой снег
100% 
03 20.10.12 060 (СВ) >10 км  слаб. ливневой снег  10/10 600 м кучево-дожд. 
[Cb cap]
-6.6 -7.4 94 -6  1021.4  -1.5  740  306           
06 20.10.12 080 (В) 4000 м  ливневой снег  10/10 600 м кучево-дожд. 
[Cb cap]
-5.1 -6.8 88 -5  1019.1  -2  738  304           
09 20.10.12 100 (В) 0500 м  ливневой снег  10/10 600 м кучево-дожд. 
[Cb cap]
-4.3 -4.5 99 -6  1015.8  -3.1  736  302           
12 20.10.12 тихо ()   н/о  ливневой снег  10/10 600 м кучево-дожд. 
[Cb cap]
-4.2 -4.2 100 -4  1014  -1.8  734  301    -4.1     
15 20.10.12 тихо ()   4000 м  слаб. ливневой снег  10/10 600 м кучево-дожд. 
[Cb cap]
-4.2 -4.2 100 -4  1012.6  -1.3  733  301           
18 20.10.12 тихо ()   4000 м  слаб. ливневой снег  10/10 600 м кучево-дожд. 
[Cb cap]
-3.8 -3.8 100 -4  1011.6  -0.8  733  300           
21 20.10.12 230 (ЮЗ) 4000 м  {ливн. осадки}  10/10 600 м кучево-дожд. 
[Cb cap]
+1.4 +0.3 92 +1  1010  -1  732  293           
00 21.10.12 220 (ЮЗ) 4000 м  слаб. ливневой снег  10/10 600 м кучево-дожд. 
[Cb cap]
+2.2 +0.3 87 +1  1007.7  -2.1  730  292  -4.4    равномерный
мокрый или
старый снег
100% 
03 21.10.12 220 (ЮЗ) >10 км  слаб. ливневой дождь со снегом  10/10 600 м кучево-дожд. 
[Cb cap]
+3.3 +1.2 86 +2  1003.1  -4.3  727  289           
06 21.10.12 230 (ЮЗ) 6{12}  4000 м  ливневой дождь со снегом  10/10 600 м кучево-дожд. 
[Cb cap]
+4.3 +2.3 87 +2  998.5  -4.3  724  287           
12 21.10.12 240 (ЮЗ) н/о  ливневой дождь  10/10 600 м кучево-дожд. 
[Cb cap]
+4.6 +3.4 92 +2  995.8  -0.3  727  288  -1.2  +4.8  15     
21 21.10.12 210 (ЮЗ) 4000 м  слаб. ливневой дождь  8/5 600 м кучево-дожд., средняя 
[Cb cap|Ac trans]
+5.2 +3.8 91 +4  999.9  -0.3  725  286           
00 22.10.12 230 (ЮЗ) 4000 м  {ливн. осадки}  8/6 600 м кучево-дожд., средняя 
[Cb cap|Ac trans]
+5.6 +3.2 84 +4  998.6  -1.2  724  285  +4.5       
03 22.10.12 000 (С) 66  0300 м  в посл. час ливневой дождь  8/8 50 м кучево-дожд., средняя 
[Cb cap|Ac trans]
+3   997  -1.5  723             
12 22.10.12 260 (З) 5{12}  4000 м  слаб. ливневой дождь  10/10 600 м кучево-дожд. 
[Cb cap]
+2.6 +1 89 1001.5  3.6  726  290    +8     
18 22.10.12 260 (З) 3{11}  4000 м  слаб. ливневой снег  10/10 600 м кучево-дожд. 
[Cb cap]
+0.4 +3.4 100 -1  1008.8  1.6  731  294           
00 23.10.12 230 (ЮЗ) 4000 м  слаб. ливневой снег  10/10 600 м кучево-дожд. 
[Cb cap]
+0.8 -5.3 64 -1  1008.2  -1  731  294  -0.3    0.4     
03 23.10.12 240 (ЮЗ) >10 км  слаб. ливневой снег  9/8 600 м кучево-дожд., средняя 
[Cb cap|Ac As]
+1.6 -2.8 73 -1  1007.1  -1  730  293           
06 23.10.12 230 (ЮЗ) >10 км  слаб. ливневой снег  10/6 600 м кучево-дожд., средняя, верхняя 
[Cb cap|Ac trans|Cs]
+3.3 -2.1 68 +2  1005.7  -1  729  290           
09 23.10.12 160 (Ю) >10 км  слаб. ливневой дождь со снегом  9/8 600 м кучево-дожд., средняя 
[Cb cap|Ac trans]
+3.6 -1.7 68 +4  1003.4  -2.3  727  289           
12 23.10.12 тихо ()   4000 м  в посл. час ливневой снег  10/10 600 м кучево-дожд. 
[Cb cap]
+1.3 -0.1 90 +1  1001.5  -2.1  726  291    +4.3  0.3     
15 23.10.12 тихо ()   4000 м  слаб. ливневой снег  10/10 600 м кучево-дожд. 
[Cb cap]
+0.7 -0.1 94 +1  998.3  -3.2  723  291           
18 23.10.12 тихо ()   н/о  ливневой снег  10/10 600 м кучево-дожд. 
[Cb cap]
+0.3 -0.3 96 995.8  -2.4  722  290           
21 23.10.12 260 (З) 4000 м  слаб. ливневой дождь  10/10 600 м кучево-дожд. 
[Cb cap]
+0.8 -0 94 998.6  2.7  724  291           
00 24.10.12 260 (З) 4000 м  в посл. час ливневой снег  10/10 600 м кучево-дожд. 
[Cb cap]
+0 -0.8 94 -2  1002.3  3.6  726  293  +0    мокрый или
старый снег
50-90% 
06 24.10.12 320 (СЗ) >10 км  слаб. ливневой снег  10/10 600 м кучево-дожд. 
[Cb cap]
-0.7 -3.5 81 -2  1005.4  1.4  729  295           
09 24.10.12 290 (З) >10 км  слаб. ливневой снег  10/10 600 м кучево-дожд. 
[Cb cap]
-1.6 -5.8 73 -3  1006.5  0.9  729  296           
12 24.10.12 240 (ЮЗ) 4000 м  {ливн. осадки}  9/4 600 м кучево-дожд., верхняя 
[Cb cap|Ci fib]
-3.6 -7.6 74 -5  1009.4  2.6  731  299    +1     
15 24.10.12 270 (З) 4000 м    9/4 600 м кучево-дожд., средняя, верхняя 
[Cb cap|Ac trans|Ci fib]
-4.7 -8.7 74 -6  1012.1  2.4  733  301           
18 24.10.12 240 (ЮЗ) 4000 м  слаб. ливневой снег  9/3 600 м кучево-дожд., средняя, верхняя 
[Cb cap|Ac trans|Ci fib]
-6.2 -9.3 79 -9  1014.7  2.3  735  304           
21 24.10.12 280 (З) 4000 м  слаб. ливневой снег  9/5 600 м кучево-дожд., верхняя 
[Cb cap|Ci fib]
-6.8 -10.6 74 -8  1017.4  2.4  737  305           
00 25.10.12 280 (З) 4000 м  слаб. ливневой снег  8/6 600 м кучево-дожд., средняя, верхняя 
[Cb cap|Ac lent|Ci fib]
-9.7 -12.3 81 -11  1020.4  2.5  738  310  -9.7    0.0  равномерный
сухой снег
100% 
03 25.10.12 220 (ЮЗ) >10 км  слаб. ливневой снег  9/5 600 м кучево-дожд., средняя 
[Cb cap|Ac trans]
-7.6 -12.1 70 -9  1022  740  308           
06 25.10.12 270 (З) >10 км  слаб. ливневой снег  9/9 600 м 
-5.9 -12.2 61 -7  1022.7  0.8  740  306           
09 25.10.12 270 (З) >10 км  слаб. ливневой снег  9/3 600 м кучево-дожд., средняя 
[Cb cap|Ac trans]
-5.1 -11 63 -6  1023.5  0.9  741  305           
12 25.10.12 280 (З) 4000 м  {ливн. осадки}  8/3 2000 м средняя, верхняя 
[Ac trans|Ci fib]
-6.5 -12.5 62 -8  1025.6  1.9  743  308    +4.6  0.0     
15 25.10.12 270 (З) 4000 м  {ливн. осадки}  9/6 600 м кучево-дожд., средняя, верхняя 
[Cb cap|Ac trans|Ci fib]
-8.5 -12.7 72 -8  1028  2.1  744  311           
18 25.10.12 260 (З) 4000 м  слаб. ливневой снег  9/8 600 м кучево-дожд., средняя, верхняя 
[Cb cap|Ac trans|Ci fib]
-8.4 -11.6 78 -8  1029.6  1.4  745  311           
21 25.10.12 250 (З) 4000 м  {ливн. осадки}  9/8 600 м кучево-дожд., средняя 
[Cb cap|Ac trans]
-8.6 -12.9 71 -10  1031  1.4  746  312           
00 26.10.12 250 (З) 4000 м  {ливн. осадки}  9/8 600 м кучево-дожд., средняя 
[Cb cap|Ac trans]
-8.5 -12.3 74 -10  1032.1  1.1  747  312  -9.4    0.0  равномерный
сухой снег
100% 
03 26.10.12 260 (З) >10 км  слаб. ливневой снег  10/10 600 м кучево-дожд. 
[Cb cap]
-7.7 -12.7 67 -7  1033.8  1.6  748  311           
06 26.10.12 180 (Ю) >10 км  слаб. ливневой снег  8/8 600 м кучево-дожд. 
[Cb cap]
-4.9 -11.6 59 -4  1033.5  0.1  748  308           
12 26.10.12 260 (З) 4000 м  слаб. ливневой снег  6/6 600 м кучево-дожд. 
[Cb cap]
-8.1 -11.7 75 -8  1033.8  0.4  748  312    -4  0.0     
15 26.10.12 230 (ЮЗ) 4000 м  {ливн. осадки}  ясно 
-11.4 -12.7 90 -11  1033.7  -0.5  748  316           
18 26.10.12 240 (ЮЗ) 4000 м  {ливн. осадки}  ясно 
-13.2 -13.8 95 -13  1033.4  -0.6  747  318           
21 26.10.12 250 (З) 4000 м    ясно 
-14.3 -14.9 95 -14  1032.8  -0.6  747  319           
00 27.10.12 270 (З) 4000 м    3/0 верхняя 
[Ci fib]
-15.3 -16.6 90 -15  1033.1  0.1  747  320  -15.3    0.0  равномерный
сухой снег
100% 
03 27.10.12 080 (В) >10 км    4/4 600 м кучево-дожд. 
[Cb cap]
-10.3 -12.3 85 -12  1032.9  0.5  747  314  -15.6         
06 27.10.12 080 (В) >10 км    6/6 600 м кучево-дожд. 
[Cb cap]
-7.1 -11.9 69 -9  1032.5  747  310           
09 27.10.12 030 (СВ) >10 км    8/8 600 м кучево-дожд. 
[Cb cap]
-6.9 -10.6 75 -7  1033.2  0.7  748  310           
12 27.10.12 230 (ЮЗ) 4000 м    3/0 верхняя 
[Ci fib]
-11.9 -13.2 90 -12  1035  1.1  749  317    -6.8       
15 27.10.12 110 (В) 29  0100 м    4/4 300 м кучево-дожд. 
[Cb cap]
-14.2   1036.9  1.6  750             
18 27.10.12 250 (З) 4000 м    ясно 
-14.3 -15.6 90 -14  1037  750  320           
21 27.10.12 тихо ()   4000 м    ясно 
-14.8 -16.1 90 -15  1037.2  750  321           
00 28.10.12 тихо ()   4000 м    ясно 
-16.1 -17.4 90 -16  1037.3  750  323  -16.4      равномерный
сухой снег
100% 
03 28.10.12 тихо ()   4000 м  дымка  3/0 верхняя 
[Ci fib]
-11.3 -12.6 90 -11  1036.4  -0.2  750  316           
06 28.10.12 220 (ЮЗ) >10 км    5/0 верхняя 
[Ci fib]
-1.6 -8.9 57 -3  1032.6  -2.3  748  304           
09 28.10.12 220 (ЮЗ) >10 км    9/8 2000 м средняя, верхняя 
[Ac trans|Ci fib]
-1.3 -7.6 62 -2  1029.6  -2.9  746  303           
12 28.10.12 220 (ЮЗ) 4000 м    4/0 верхняя 
[Ci fib]
-1.6 -7.2 66 -4  1026.2  -3.3  743  302    -1.1       
15 28.10.12 210 (ЮЗ) 6{11}  4000 м    9/6 600 м кучево-дожд., средняя 
[Cb cap|Ac trans]
-0.2 -7.2 59 -4  1022.2  -3.8  741  299           
18 28.10.12 230 (ЮЗ) 4{15}  н/о  ливневой снег  10/10 600 м кучево-дожд. 
[Cb cap]
-0.8 -2 91 -3  1022.7  0.5  741  300           
00 29.10.12 220 (ЮЗ) 4000 м  слаб. ливневой снег  10/10 600 м 
+0.3 -1.4 88 1025.4  743  299  -1.6    равномерный
мокрый или
старый снег
100% 
03 29.10.12 250 (З) >10 км  {ливн. осадки}  9/6 600 м кучево-дожд., средняя 
[Cb cap|Ac trans]
+0.6 -2 83 1025.5  0.1  743  299           
06 29.10.12 280 (З) >10 км  слаб. ливневой снег  10/10 600 м кучево-дожд. 
[Cb cap]
+1.6 -2.8 73 +1  1024.6  -0.7  743  298           
09 29.10.12 260 (З) 10 км  ливневой снег  10/10 600 м кучево-дожд. 
[Cb cap]
+1.8 -2.9 71 1025  0.4  743  298           
12 29.10.12 260 (З) 4000 м  {ливн. осадки}  9/5 600 м кучево-дожд., средняя 
[Cb cap|Ac trans]
-0.2 -4.3 74 -1  1026.6  1.3  744  300    +2     
15 29.10.12 230 (ЮЗ) 4000 м    8/4 600 м кучево-дожд., верхняя 
[Cb cap|Ci fib]
-0.2 -5 70 -2  1026.8  0.2  744  301           
18 29.10.12 260 (З) 4000 м    10/6 600 м кучево-дожд., верхняя 
[Cb cap|Cs]
+0.8 -4.9 66 -1  1026  -0.7  743  299           
21 29.10.12 260 (З) 3{10}  4000 м    10/8 600 м кучево-дожд., верхняя 
[Cb cap|Cs]
+0.8 -4.9 66 -1  1025.3  -0.7  743  299           
00 30.10.12 230 (ЮЗ) 4000 м    10/3 600 м кучево-дожд., средняя 
[Cb cap|As trans]
+1.4 -5.7 59 1023.7  -1.3  742  298  -1      равномерный
мокрый или
старый снег
100% 
03 30.10.12 210 (ЮЗ) 5{11}  >10 км    9/6 600 м кучево-дожд., средняя 
[Cb cap|Ac trans]
+2.9 -7.7 46 1020.6  -2.9  740  296           
06 30.10.12 240 (ЮЗ) 6{16}  >10 км    9/3 600 м кучево-дожд., средняя 
[Cb cap|Ac trans]
+6.3 -8.9 33 +4  1017.3  -2.7  738  291           
12 30.10.12 240 (ЮЗ) 6{20}  4000 м  {ливн. осадки}  4/3 2000 м средняя, верхняя 
[Ac trans|Ci fib]
+7.1 -8.2 33 +5  1013.5  -1.7  735  289    +7.6  0.0     
15 30.10.12 230 (ЮЗ) 7{16}  4000 м    3/0 верхняя 
[Ci fib]
+6.9 -7.8 34 +4  1010.4  -3  733  289           
18 30.10.12 230 (ЮЗ) 7{19}  4000 м    6/4 2000 м средняя, верхняя 
[Ac trans|Ci fib]
+7.2 -6.4 37 +5  1007.2  -3  731  287           
21 30.10.12 240 (ЮЗ) 5{11}  4000 м    8/4 2000 м средняя, верхняя 
[Ac trans|Ci fib]
+7.6 -4.7 41 +6  1005.2  -1.9  729  286           
00 31.10.12 240 (ЮЗ) 4{11}  4000 м    6/3 2000 м средняя, верхняя 
[Ac trans|Ci fib]
+7.4 -2.5 49 +6  1004.2  -1  728  286  +6.8      мокрый или
старый снег
50-90% 
06 31.10.12 280 (З) 2{10}  >10 км  слаб. ливневой снег  10/10 600 м кучево-дожд. 
[Cb cap]
+1.2 +0.4 94 +1  1008.6  3.4  731  293           
09 31.10.12 260 (З) >10 км  в посл. час ливневой дождь  9/6 600 м кучево-дожд., средняя 
[Cb cap|Ac trans]
+0 -4.4 72 -2  1011  733  296           
12 31.10.12 280 (З) 4{11}  4000 м  слаб. ливневой снег  10/10 600 м кучево-дожд. 
[Cb cap]
-1.2 -7.5 62 -4  1013.9  2.7  735  298    +8.8  0.5     
15 31.10.12 270 (З) 4000 м  слаб. ливневой снег  9/6 600 м кучево-дожд., средняя 
[Cb cap|Ac trans]
-2.3 -5.5 79 -4  1015.2  1.2  735  299           
18 31.10.12 270 (З) 2{11}  4000 м  слаб. ливневой снег  10/10 600 м кучево-дожд. 
[Cb cap]
-2.9 -7.5 71 -4  1016.7  1.2  736  301           
21 31.10.12 260 (З) 4000 м  слаб. ливневой снег  8/6 600 м кучево-дожд., средняя 
[Cb cap|Ac trans]
-3.8 -9.1 67 -6  1017.7  0.9  737  302           
00 01.11.12 270 (З) 4000 м  слаб. ливневой снег  10/10 600 м кучево-дожд. 
[Cb cap]
-4.2 -8.4 73 -5  1019.4  1.7  738  303  -4.2    0.0  <0.5  равномерный
сухой снег
100% 
03 01.11.12 280 (З) >10 км  слаб. ливневой снег  10/10 600 м кучево-дожд. 
[Cb cap]
-4.7 -9.5 69 -8  1021.4  1.9  740  304           
06 01.11.12 260 (З) 2{10}  >10 км  слаб. ливневой снег  10/10 600 м кучево-дожд. 
[Cb cap]
-3.9 -7.6 75 -5  1023.6  2.1  741  304           
09 01.11.12 280 (З) >10 км  слаб. ливневой снег  8/8 600 м кучево-дожд. 
[Cb cap]
-3.3 -9.3 63 -4  1025.8  2.2  743  304           
12 01.11.12 270 (З) 4000 м  {ливн. осадки}  3/3 600 м кучево-дожд. 
[Cb cap]
-5.2 -11.1 63 -7  1029.3  3.2  745  307    -3  0.2     
18 01.11.12 300 (СЗ) 4000 м  слаб. ливневой снег  8/8 600 м кучево-дожд. 
[Cb cap]
-8.3 -12 75 -10  1036.3  2.6  750  313           
21 01.11.12 240 (ЮЗ) 4000 м  {ливн. осадки}  9/8 600 м кучево-дожд., средняя 
[Cb cap|Ac trans]
-8.5 -12.7 72 -10  1038  1.7  751  314           
00 02.11.12 240 (ЮЗ) 3{10}  4000 м  слаб. ливневой снег  9/4 600 м кучево-дожд., средняя, верхняя 
[Cb cap|Ac trans|Ci fib]
-8.5 -12.3 74 -11  1039.3  0.9  752  314  -9    0.0  <0.5  равномерный
сухой снег
100% 
06 02.11.12 240 (ЮЗ) >10 км  {ливн. осадки}  10/4 600 м средняя, верхняя 
[Ac trans|Cs]
-3.8 -12.5 51 -5  1038.4  -0.6  752  308           
09 02.11.12 230 (ЮЗ) >10 км    10/8 600 м кучево-дожд., средняя, верхняя 
[Cb cap|Ac trans|Cs]
-3.9 -11.6 55 -5  1036.8  -1.5  751  308           
12 02.11.12 150 (ЮВ) 4000 м  {ливн. осадки}  9/6 600 м кучево-дожд., средняя 
[Cb cap|Ac trans]
-4.6 -10.3 65 -4  1034.3  -2.4  749  308    -3.3  0.0     
15 02.11.12 230 (ЮЗ) 4000 м    9/8 600 м кучево-дожд., средняя 
[Cb cap|Ac trans]
-3.8 -11 57 -5  1031.3  -2.9  747  306           
18 02.11.12 220 (ЮЗ) 4000 м    10/10 600 м кучево-дожд. 
[Cb cap]
-3.1 -10.3 58 -5  1028.9  -2.3  745  305           
21 02.11.12 250 (З) 4000 м  слаб. ливневой снег  10/10 600 м кучево-дожд. 
[Cb cap]
-2.8 -9.9 58 -4  1027.5  -1.3  744  304           
00 03.11.12 тихо ()   н/о  ливневой снег  10/10 600 м кучево-дожд. 
[Cb cap]
-3.6 -7.6 74 -4  1026.1  -1.4  743  304  -4.8    0.3  <0.5  равномерный
сухой снег
100% 
03 03.11.12 200 (Ю) >10 км  в посл. час ливневой снег  10/4 600 м кучево-дожд., средняя 
[Cb cap|Ac As]
-2.5 -7.7 68 -4  1024  -1.8  742  302           
06 03.11.12 210 (ЮЗ) >10 км  {ливн. осадки}  10/4 1000 м средняя 
[Sc|As op]
-0.4 -9.2 51 1022  -1.7  741  300           
09 03.11.12 220 (ЮЗ) >10 км  слаб. ливневой снег  10/8 1000 м кучево-дожд., средняя 
[Cb cap|As op]
+0.6 -8.4 51 1019.7  -2.1  739  298           
12 03.11.12 220 (ЮЗ) 4000 м  слаб. ливневой снег  10/8 600 м кучево-дожд., средняя 
[Cb cap|As op]
-1.1 -2.7 89 -1  1019  -0.9  738  299      0.6     
15 03.11.12 тихо ()   4000 м  {ливн. осадки}  10/6 600 м кучево-дожд., средняя 
[Cb cap|As op]
-1.4 -2.3 94 -1  1016.9  -2.1  737  299           
18 03.11.12 220 (ЮЗ) 5{11}  4000 м  {ливн. осадки}  10/10 600 м кучево-дожд. 
[Cb cap]
+0.6 -5.2 65 -2  1013.5  -3  734  296           
21 03.11.12 220 (ЮЗ) 6{13}  4000 м    9/8 600 м кучево-дожд., средняя 
[Cb cap|Ac trans]
+1.5 -5.7 59 -2  1011  -2.3  733  294           
00 04.11.12 240 (ЮЗ) 2{12}  4000 м    9/4 600 м кучево-дожд., средняя 
[Cb cap|Ac trans]
+0.6 -5.6 63 1011.5  0.4  733  295  -1.6    0.3  равномерный
мокрый или
старый снег
100% 
03 04.11.12 250 (З) >10 км    10/3 600 м кучево-дожд., средняя, верхняя 
[Cb cap|Ac trans|Cs]
+1.4 -5.2 61 +2  1011.8  0.4  733  295  +0.4         
06 04.11.12 220 (ЮЗ) >10 км    8/5 600 м кучево-дожд., средняя 
[Cb cap|Ac trans]
+3.3 -5.8 51 +4  1011  -0.7  733  292           
09 04.11.12 тихо ()   >10 км    10/3 2000 м средняя, верхняя 
[Ac trans|Cs]
+3 -7.5 46 +3  1009.9  -1.1  732  292           
12 04.11.12 270 (З) 4000 м    9/9 2000 м средняя 
[Ac trans]
+0.3 -3.7 75 +1  1010.9  0.8  733  295    +4.3  0.0     
15 04.11.12 тихо ()   4000 м  слаб. ливневой снег  10/8 600 м кучево-дожд., средняя 
[Cb cap|Ac As]
-0.2 -3.3 80 -0  1009.9  -1.2  732  295           
18 04.11.12 тихо ()   4000 м  {ливн. осадки}  10/4 600 м кучево-дожд., средняя 
[Cb cap|Ac As]
-0.6 -2.7 86 -1  1009.3  -0.5  731  296           
21 04.11.12 270 (З) 4000 м  слаб. ливневой снег  10/8 600 м кучево-дожд., средняя 
[Cb cap|Ac As]
-0.6 -2.1 90 1008.2  -1.1  731  295           
Время (UTC), дата Ветер
(°,м/с) 
Видим.   Явления Облачность Т
(°С)
Тd
(°С)
f(%) Тe
(°С)
Pmin
(гПа)
dP
(гПа)
Po
(мм)
O2
(г/м3)
Тmin Tmax R s Состояние
почвы